Location: Kawakawa
(35.3830°S, 174.0670°E)
Time: 03:05:07
(UTC+13:00)

A-11 Canister half - Pass Details

Date: 15 December 2019
Orbit: 1525 x 1684 km, 47.3° (Epoch: 23 January)

Event Time Altitude Azimuth Distance (km) Brightness Sun altitude
Rises 23:27:48 0° 237° (WSW) 4,696 12.5 -25.7°
Reaches altitude 10° 23:30:52 10° 234° (SW) 3,718 11.8 -26.0°
Maximum altitude 23:40:14 68° 151° (SSE) 1,660 9.2 -26.9°
Enters shadow 23:45:37 30° 76° (ENE) 2,555 9.8 -27.3°
